Regional Weather Roundup
Issued by NWS

Home | Current Version | Previous Version | Text Only | Print | Product List | Glossary On
Versions: 1 2 3 4 5 6 7 8 9 10 11 12 13 14 15 16 17 18 19 20 21 22 23 24 25 26 27 28 29 30 31 32 33 34 35 36 37 38 39 40 41 42 43 44 45 46 47 48 49 50
000
ASUS43 KMKX 080210
RWRWI

WISCONSIN REGIONAL WEATHER ROUNDUP
NATIONAL WEATHER SERVICE MILWAUKEE/SULLIVAN WI
800 PM CST SUN FEB 07 2016

NOTE: "FAIR" INDICATES FEW OR NO CLOUDS BELOW 12,000 FEET WITH NO
SIGNIFICANT WEATHER AND/OR OBSTRUCTIONS TO VISIBILITY.

WIZ001-002-006>008-014>016-023>028-080300-
NORTHWEST WISCONSIN

CITY           SKY/WX    TMP DP  RH WIND       PRES   REMARKS
SUPERIOR ARPT  LGT SNOW  28  24  87 NW14G22   29.63R WCI  16
ASHLAND        FLURRIES  31  30  96 W10       29.55S WCI  22
HAYWARD        LGT SNOW  28  24  85 W9        29.58R FOG     WCI  19
SIREN          FLURRIES  25  20  82 NW16G23   29.65R WCI  12
CUMBERLAND     LGT SNOW  27  23  86 NW14G25   29.61R WCI  15
RICE LAKE      LGT SNOW  28  25  87 W13       29.63R WCI  18
CHETEK         LGT SNOW  28  27  93 W9G16     29.61R WCI  20
LADYSMITH      LGT SNOW  32  30  93 W14       29.58R WCI  22
EAU CLAIRE     FLURRIES  31  25  78 W21G31    29.62R WCI  18
MENOMONIE      LGT SNOW  31  26  80 W23G29    29.64R WCI  18
NEW RICHMOND   LGT SNOW  25  22  87 W22       29.68R WCI  11
OSCEOLA        LGT SNOW  25  21  85 W16G24    29.72R WCI  12
$$

WIZ003>005-009-010-017-018-080300-
NORTH CENTRAL WISCONSIN

CITY           SKY/WX    TMP DP  RH WIND       PRES   REMARKS
MANITOWISH WTR LGT SNOW  31  31 100 SW6       29.50F WCI  25
ARBOR VITAE    LGT SNOW  33  31  93 SW3       29.51F
WOODRUFF       LGT SNOW  33  31  93 SW3       29.51F
RHINELANDER    CLOUDY    32  27  81 W10       29.53F WCI  24
EAGLE RIVER    FLURRIES  32  31  95 SW8       29.51S WCI  25
LAND O LAKES   LGT SNOW  32  32  99 CALM      29.51F
PHILLIPS       LGT SNOW  32  31  99 SW6       29.52F WCI  26
TOMAHAWK       LGT RAIN  32  28  83 CALM      29.55S
MEDFORD        FLURRIES  33  28  83 SW7       29.55S WCI  27
MERRILL        CLOUDY    35  28  76 W7        29.56S WCI  29
$$

WIZ029-030-035-036-043>047-080300-
CENTRAL WISCONSIN

CITY           SKY/WX    TMP DP  RH WIND       PRES   REMARKS
WAUSAU         CLOUDY    37  26  64 SW8       29.55F WCI  31
MOSINEE        NOT AVBL
MARSHFIELD     CLOUDY    36  26  67 W12       29.57F WCI  28
STEVENS POINT  CLOUDY    34  25  67 SW7       29.59F WCI  28
WAUPACA        CLOUDY    38  28  65 SW8       29.61F WCI  32
WAUTOMA        CLOUDY    37  26  65 SW8       29.63F WCI  31
WISC RAPIDS    CLOUDY    36  24  62 SW7       29.61F WCI  30
CAMP DOUGLAS   CLOUDY    36  33  88 SW13      29.62F WCI  28
$$

WIZ011>013-019>022-031-037>040-048>050-080300-
NORTHEAST WISCONSIN

CITY           SKY/WX    TMP DP  RH WIND       PRES   REMARKS
ANTIGO         MOCLDY    33  27  79 SW9       29.55F WCI  25
SHAWANO        CLOUDY    40  28  64 W7        29.59S WCI  35
OCONTO         CLOUDY    37  30  78 S5        29.59S WCI  33
STURGEON BAY   CLOUDY    36  28  75 S9        29.62S WCI  29
GREEN BAY      CLOUDY    37  29  72 SW6       29.61S WCI  32
MANITOWOC      CLOUDY    39  29  67 SW10      29.63S WCI  32
APPLETON       CLOUDY    36  27  69 S8        29.60S WCI  29
CLINTONVILLE   CLOUDY    37  27  65 W8        29.60F WCI  31
OSHKOSH        CLOUDY    36  26  67 VRB5      29.63S WCI  32
$$

WIZ032>034-041-042-053>061-080300-
SOUTHWEST WISCONSIN

CITY           SKY/WX    TMP DP  RH WIND       PRES   REMARKS
LA CROSSE      CLOUDY    37  30  75 W15G22    29.65F WCI  28
SPARTA         CLOUDY    37  29  75 W6        29.65S WCI  32
VIROQUA        CLOUDY    34  30  84 W14       29.65S WCI  25
BOSCOBEL       CLOUDY    37  30  75 SW9       29.70F WCI  30
PRAIRIE DU CHI CLOUDY    36  27  72 SW12      29.71S WCI  27
PLATTEVILLE    MOCLDY    33  30  88 SW10      29.71F WCI  25
$$

WIZ056-057-062-063-064-067-068-080300-
SOUTH CENTRAL WISCONSIN

CITY           SKY/WX    TMP DP  RH WIND       PRES   REMARKS
REEDSBURG      CLOUDY    35  28  75 SW10      29.65F WCI  28
BARABOO/DELLS  CLOUDY    35  27  70 SW8       29.64F WCI  29
LONE ROCK      CLOUDY    36  27  69 W10       29.69F WCI  28
MINERAL POINT  MOCLDY    34  30  86 SW12      29.68F WCI  25
MADISON        PTCLDY    34  26  72 SW6       29.68S WCI  29
MIDDLETON      CLEAR     36  28  72 SW10      29.68S WCI  28
WATERTOWN      PTCLDY    34  27  77 SW7       29.67F WCI  28
MONROE         CLEAR     34  30  86 SW16G22   29.70F WCI  23
JANESVILLE     PTCLDY    36  28  75 SW12      29.71F WCI  27
$$

WIZ051-052-058>065-066-070>072-080300-
SOUTHEAST WISCONSIN

CITY           SKY/WX    TMP DP  RH WIND       PRES   REMARKS
MILWAUKEE      PTCLDY    37  25  61 W12       29.68F WCI  29
WAUKESHA       CLEAR     34  25  69 SW12      29.68F WCI  25
MILWAUKEE/TIMM NOT AVBL
RACINE         CLEAR     36  25  64 W10       29.70F WCI  28
BURLINGTON     CLEAR     33  26  76 SW13      29.70S WCI  24
KENOSHA        CLEAR     35  27  72 W10       29.69F WCI  27
FOND DU LAC    MOCLDY    34  26  72 SW7       29.64F WCI  28
SHEBOYGAN      CLOUDY    35  28  75 SW9       29.65S WCI  28
WEST BEND      PTCLDY    34  27  75 SW9       29.65S WCI  26
JUNEAU         MOCLDY    33  26  75 SW12      29.67S WCI  25
$$

LSZ147-162-080300-
LAKE SUPERIOR

STATION/POSITION TIME  TEMP    WIND        PRES    WAVE
                       AIR SEA DIR/SP/G            HT/PER
                 (UTC) (F)     (DEG/KT/KT) (MB)    (FT/S)
DEVILS ISLAND    0200   31      30/ 27/ 32 1000.7R
PORT WING        0100   31     260/ 13/ 17 1001.7R
SAXON HARBOR     0100   34                 1000.0
$$

LMZ867-665-643>646-080300-
LAKE MICHIGAN

STATION/POSITION TIME  TEMP    WIND        PRES    WAVE
                       AIR SEA DIR/SP/G            HT/PER
                 (UTC) (F)     (DEG/KT/KT) (MB)    (FT/S)
CHAMBERS ISLAND  0100   37     190/  5/ 12 1002.7F
NORTHPORT PIER   0100   37      CALM  /  3 1002.4F
KEWAUNEE LAKESHO 0100   38                 1002.4F
SHEBOYGAN LAKESH 0200   37     230/  9/ 11 1004.7S
PORT WASHINGTON  0100   38     240/  8/ 10 1005.8S
MILWAUKEE LAKESH 0110   39     240/ 12/ 15   N/A
KENOSHA   LAKESH 0200   38     260/ 14/ 18 1005.8F
$$

TC  - TEMPERATURE IN CELSIUS
VSB - VISIBILITY IN STATUTE MILES
WCI - WIND CHILL INDEX
HX  - HEAT INDEX





USA.gov is the U.S. government's official web portal to all federal, state and local government web resources and services.